Wetbulb
47.98 47.03 47.10 46.82 47.28 47.10 47.61 49.60 50.17 50.89 53.31 54.74 54.68 53.78 51.76 51.39 51.76 52.33 51.47 50.98 51.00 50.07
46.94 46.55 46.76 47.24 47.65 46.58 47.49 51.85 51.65 51.70 52.46 53.66 53.43 52.36 50.45 49.28 49.47 50.21 50.76 50.45 50.40 51.48
46.41 47.11 48.44 48.72 46.51 48.74 47.98 51.51 51.73 50.25 49.92 51.43 51.99 51.49 49.18 47.88 48.67 49.02 50.03 51.13 50.36 49.61
48.35 48.92 48.03 46.65 48.32 49.04 49.53 51.11 51.14 50.05 49.63 49.49 49.91 50.14 49.87 48.99 50.78 49.81 50.65 50.56 49.90 49.72
49.25 48.25 49.21 48.06 48.63 49.88 48.77 48.52 50.02 49.66 49.15 49.12 49.03 49.49 49.16 51.42 51.20 50.97 50.47 49.95 50.25 52.07
47.03 46.83 46.38 47.94 49.04 48.13 47.95 47.80 48.18 48.49 48.72 48.05 47.87 47.91 48.58 49.47 49.83 49.60 51.41 51.12 49.47 48.83
46.99 47.14 46.96 47.48 48.39 49.82 49.18 48.45 48.65 48.95 48.84 47.55 46.62 47.22 48.11 49.85 48.88 49.80 51.89 50.65 49.64 48.66
48.95 48.36 48.93 50.44 49.05 47.94 47.50 47.92 50.11 49.64 48.96 46.37 46.69 47.34 46.45 47.53 48.49 47.72 48.51 50.01 49.93 49.18
48.61 48.53 48.65 49.91 50.31 49.93 49.42 49.56 47.89 47.46 47.92 46.19 47.47 47.33 48.80 49.56 46.48 48.51 48.69 48.35 48.79 49.33
50.58 48.54 48.63 49.55 49.14 48.25 47.87 48.73 48.91 49.26 49.56 47.89 47.27 46.89 47.10 49.62 48.70 47.64 50.17 50.07 49.74 48.84
49.64 48.49 49.12 49.36 49.55 47.74 47.53 47.22 49.25 48.06 47.56 46.44 45.60 46.48 45.85 47.76 48.72 47.51 47.43 48.15 48.01 47.42
50.20 49.38 48.91 47.73 48.49 49.67 47.79 47.69 47.98 48.45 46.94 45.82 44.36 45.54 45.01 45.32 47.69 48.51 47.96 47.68 45.77 47.03
50.33 49.69 49.60 51.22 51.60 51.78 51.29 50.87 50.14 49.47 47.52 48.90 45.46 44.11 44.40 44.65 46.51 47.98 48.61 46.75 44.74 46.84
51.28 49.55 50.41 52.07 51.45 52.27 49.90 51.05 49.44 51.37 48.93 47.79 46.23 46.05 44.19 45.05 48.03 47.93 48.36 48.21 47.27 47.31
MSLP
1025.55 1025.31 1025.03 1024.68 1024.29 1023.92 1023.46 1022.94 1022.30 1021.79 1021.33 1021.02 1020.92 1020.92 1020.93 1020.87 1020.71 1020.46 1020.33 1020.26 1020.36 1020.39
1025.71 1025.40 1025.16 1024.74 1024.36 1024.00 1023.58 1022.73 1022.40 1021.99 1021.67 1021.43 1021.38 1021.32 1021.30 1021.22 1021.03 1020.82 1020.70 1020.69 1020.62 1020.55
1025.76 1025.48 1025.15 1024.79 1024.39 1023.99 1023.59 1023.04 1022.61 1022.35 1022.04 1021.81 1021.69 1021.61 1021.63 1021.57 1021.40 1021.16 1021.04 1020.92 1020.92 1020.94
1025.87 1025.58 1025.23 1024.90 1024.47 1024.03 1023.54 1023.16 1022.89 1022.58 1022.40 1022.26 1022.14 1021.91 1021.87 1021.67 1021.48 1021.42 1021.31 1021.23 1021.20 1021.32
1026.12 1025.80 1025.45 1025.04 1024.57 1024.03 1023.83 1023.38 1023.07 1022.77 1022.69 1022.60 1022.54 1022.50 1022.31 1022.06 1021.85 1021.71 1021.70 1021.69 1021.68 1021.73
1026.32 1025.95 1025.62 1025.27 1024.82 1024.38 1024.13 1023.79 1023.31 1023.04 1022.99 1022.99 1023.00 1022.91 1022.75 1022.53 1022.25 1022.02 1021.78 1021.89 1021.96 1022.04
1026.46 1026.11 1025.77 1025.41 1025.05 1024.73 1024.29 1024.10 1023.74 1023.43 1023.34 1023.42 1023.35 1023.21 1022.99 1022.75 1022.48 1022.34 1022.23 1022.21 1022.27 1022.29
1026.45 1026.13 1025.76 1025.50 1025.29 1025.11 1024.78 1024.48 1024.03 1023.79 1023.70 1023.73 1023.66 1023.61 1023.33 1023.03 1022.84 1022.74 1022.70 1022.61 1022.51 1022.41
1026.41 1026.11 1025.81 1025.55 1025.37 1025.25 1025.06 1024.77 1024.51 1024.28 1024.15 1024.10 1024.15 1023.97 1023.57 1023.19 1023.03 1022.94 1023.01 1022.92 1022.69 1022.62
1026.42 1026.16 1025.89 1025.62 1025.44 1025.33 1025.17 1024.84 1024.50 1024.49 1024.48 1024.56 1024.52 1024.30 1024.03 1023.75 1023.55 1023.35 1023.21 1023.02 1022.90 1022.84
1026.49 1026.30 1026.06 1025.80 1025.55 1025.41 1025.20 1025.02 1024.81 1024.60 1024.69 1024.76 1024.79 1024.54 1024.34 1024.03 1023.66 1023.60 1023.47 1023.18 1022.97 1022.82
1026.64 1026.51 1026.38 1026.17 1025.66 1025.31 1025.19 1025.04 1024.92 1024.89 1024.94 1024.98 1024.95 1024.71 1024.51 1024.32 1024.04 1023.71 1023.43 1023.14 1022.66 1022.61
1026.68 1026.63 1026.45 1026.02 1025.61 1025.31 1025.07 1024.96 1024.92 1024.96 1025.01 1024.98 1024.88 1024.73 1024.43 1024.22 1023.95 1023.70 1023.36 1023.13 1022.81 1022.36
1026.69 1026.57 1026.26 1026.10 1025.76 1025.51 1025.34 1025.18 1025.08 1025.13 1025.11 1025.02 1024.91 1024.80 1024.45 1024.15 1023.93 1023.75 1023.40 1023.14 1022.92 1022.54
Wind_Speed
7 4 3 4 4 4 3 4 5 4 2 4 5 5 5 4 4 5 4 4 3 2
6 7 5 7 4 4 5 5 6 6 5 6 6 6 4 4 5 5 5 5 4 4
6 6 5 5 6 6 6 6 6 6 5 5 5 5 5 4 3 5 4 3 5 3
6 6 5 5 5 5 5 5 5 6 5 5 6 6 6 5 5 6 5 5 6 5
6 7 7 6 6 6 6 6 6 5 6 5 6 7 7 6 5 5 6 6 7 5
6 6 6 6 6 6 7 7 7 6 6 6 6 7 7 6 6 5 5 6 7 6
6 6 5 6 6 6 6 6 6 6 6 6 6 6 6 6 6 7 6 6 6 5
6 6 5 4 5 6 6 6 6 7 6 6 6 5 6 6 6 6 6 6 4 4
6 5 6 5 5 5 4 5 5 6 6 6 5 9 10 7 6 7 6 5 5 2
5 4 5 5 6 5 5 4 5 4 4 5 4 8 9 10 4 3 4 4 5 4
5 6 6 6 5 3 1 2 4 5 4 5 3 6 6 5 1 2 2 3 3 1
6 6 5 5 6 4 3 3 3 3 4 4 2 5 8 7 4 4 4 3 1 1
5 6 6 6 6 4 3 3 4 3 3 4 2 3 4 4 3 4 3 4 5 6
5 4 5 5 3 4 6 5 4 4 4 6 5 4 7 5 3 2 3 2 4 4
Wind_Direction
11 352 0 343 339 336 329 317 325 331 6 42 42 26 31 12 19 19 30 71 82 107
358 350 359 344 356 341 332 327 357 357 22 20 26 33 44 29 23 27 30 46 42 76
349 354 350 354 349 341 330 349 353 358 15 20 16 23 25 6 356 37 21 36 45 47
355 356 0 349 345 341 337 346 357 360 351 22 23 12 17 3 16 42 26 38 51 56
4 360 356 355 345 347 355 355 356 358 25 47 42 31 15 16 20 37 48 53 60 56
5 355 354 348 346 4 358 357 345 358 40 49 37 31 19 15 11 39 53 75 69 53
351 354 2 5 11 16 12 16 15 18 40 57 42 29 4 10 22 40 37 75 67 55
337 345 360 19 26 26 24 12 14 19 38 51 41 19 4 357 36 42 38 46 64 58
334 348 342 1 27 42 26 14 21 26 35 44 37 8 8 14 32 31 43 25 21 80
360 357 344 348 19 39 31 14 354 27 49 55 42 21 11 17 45 45 39 8 360 5
4 17 21 24 21 27 12 326 332 351 48 61 30 22 10 3 16 296 269 248 302 119
357 9 14 5 345 340 8 4 19 60 86 95 24 344 345 356 325 288 284 237 225 196
343 1 357 335 343 319 345 347 19 59 111 134 95 339 334 352 341 336 297 243 270 265
342 316 318 320 313 349 7 25 32 60 64 71 47 14 7 331 316 339 332 261 289 282